Weather in Colonia Sant Jordi

Spain     39°19′01″N   2°59′37″E
temp.,
°C
wind,
m/s
gust,
m/s
humid.,
%
clouds,
%
prec.,
mm/h
press.,
hPa
HPBL,
m
28 january, thu
thu2801:00+15wnw34811 0.0 102127
04:00+15wnw68820 0.0 1020144
07:00+16nw812730 0.0 1021207
10:00+16w56770 0.0 102290
13:00+17wsw68750 0.0 1021172
16:00+16wsw58800 0.0 1020183
19:00+15wsw57843 0.0 1020105
22:00+15wsw558121 0.0 102063
29 january, fri
fri2901:00+16wsw678360 0.0 101995
04:00+16w6880100 0.0 1017122
07:00+16w7108078 0.0 1017164
10:00+16w688018 0.0 1018132
13:00+16w78769 0.0 1018142
16:00+16w67740 0.0 1016132
19:00+16w56740 0.0 101763
22:00+16w457632 0.0 101738
30 january, sat
sat3001:00+15wsw577818 0.0 1015106
04:00+15wsw711830 0.0 1012227
07:00+16wsw915800 0.0 1010384
10:00+17w1524700 0.0 1011667
13:00+16w12187219 0.0 1008570
16:00+17w142263100 0.0 1006713
19:00+15nw8136276 0.0 1007413
22:00+14wnw9166558 0.1 10081117
31 january, sun
sun3101:00+14wnw11156729 0.1 10081342
04:00+13wnw1316590 0.0 10061301
07:00+14wnw1420605 0.0 10061415
10:00+14wnw1421600 0.0 10081602
13:00+15wnw1520630 0.0 10081299
16:00+15w12167014 0.0 1007800
19:00+16w11177357 0.0 1007347
22:00+16w12207387 0.0 1008470
1 february, mon
mon101:00+16w13197243 0.0 1007351
04:00+16wnw1119700 0.0 1007671
07:00+15w1219680 0.0 10081030
10:00+15wnw1220680 0.0 10101541
13:00+16wnw12186524 0.0 10121247
16:00+15w1016720 0.0 1012778
19:00+16w9157032 0.0 1013438
22:00+15wnw714739 0.0 1015379